AFR006 LFPG-KJFK

Flight info

Callsign AFR006
Flight time N/A
Altitude 34000
Route ELCOB UT300 SENLO UN502 JSY DCT MUREL DCT GANTO DCT LARLA DCT RATKA/M081F340 DCT OMOKO DCT 4815N DCT 4820N DCT 4730N DCT 4640N DCT 4450N DCT JAROM N54G LOMPI/N0466F340 DCT KANNI DCT PLYMM PARCH3
Aircraft A388/J-SDE2E3GHIJ4J5M1P2RXYZ/LB1D1

Departure

Time 2026-05-01 10:56
Airport Charles de Gaulle International Airport (LFPG)

Arrival

Time N/A
Airport John F. Kennedy International Airport (KJFK)
Time Latitude Longitude Altitude Speed Heading
2026-05-01 10:24 49.00207 2.58644 359 ft 0 kts 262°
2026-05-01 10:38 49.00208 2.58650 359 ft 2 kts 261°
2026-05-01 10:38 49.00210 2.58669 359 ft 2 kts 259°
2026-05-01 10:38 49.00213 2.58688 366 ft 2 kts 257°
2026-05-01 10:39 49.00217 2.58706 364 ft 2 kts 247°
2026-05-01 10:39 49.00224 2.58722 368 ft 2 kts 233°
2026-05-01 10:39 49.00233 2.58735 368 ft 2 kts 219°
2026-05-01 10:39 49.00244 2.58744 368 ft 2 kts 205°
2026-05-01 10:40 49.00256 2.58749 366 ft 2 kts 192°
2026-05-01 10:40 49.00268 2.58751 366 ft 2 kts 183°
2026-05-01 10:40 49.00273 2.58751 365 ft 0 kts 177°
2026-05-01 10:46 49.00253 2.58752 366 ft 6 kts 177°
2026-05-01 10:46 49.00235 2.58753 368 ft 4 kts 177°
2026-05-01 10:46 49.00224 2.58754 368 ft 0 kts 177°
2026-05-01 10:47 49.00223 2.58754 368 ft 1 kts 177°
2026-05-01 10:47 49.00194 2.58757 367 ft 7 kts 175°
2026-05-01 10:47 49.00133 2.58765 362 ft 11 kts 175°
2026-05-01 10:47 49.00056 2.58747 365 ft 12 kts 216°
2026-05-01 10:48 49.00028 2.58629 362 ft 14 kts 264°
2026-05-01 10:48 49.00019 2.58455 362 ft 18 kts 266°
2026-05-01 10:48 49.00008 2.58243 363 ft 21 kts 265°
2026-05-01 10:48 48.99995 2.58005 365 ft 24 kts 265°
2026-05-01 10:49 48.99980 2.57746 361 ft 25 kts 265°
2026-05-01 10:49 48.99966 2.57481 359 ft 17 kts 266°
2026-05-01 10:49 48.99958 2.57312 367 ft 18 kts 266°
2026-05-01 10:49 48.99947 2.57110 365 ft 20 kts 265°
2026-05-01 10:50 48.99934 2.56886 359 ft 23 kts 265°
2026-05-01 10:50 48.99921 2.56639 364 ft 24 kts 266°
2026-05-01 10:50 48.99907 2.56378 360 ft 25 kts 265°
2026-05-01 10:50 48.99900 2.56230 366 ft 10 kts 265°
2026-05-01 10:51 48.99893 2.56099 361 ft 14 kts 265°
2026-05-01 10:51 48.99894 2.55931 361 ft 14 kts 280°
2026-05-01 10:51 48.99876 2.55813 368 ft 11 kts 208°
2026-05-01 10:51 48.99817 2.55801 366 ft 8 kts 179°
2026-05-01 10:52 48.99752 2.55807 364 ft 11 kts 175°
2026-05-01 10:52 48.99709 2.55812 363 ft 0 kts 175°
2026-05-01 10:53 48.99708 2.55812 363 ft 0 kts 175°
2026-05-01 10:53 48.99704 2.55813 359 ft 2 kts 175°
2026-05-01 10:54 48.99670 2.55818 367 ft 7 kts 174°
2026-05-01 10:54 48.99623 2.55850 366 ft 8 kts 122°
2026-05-01 10:54 48.99607 2.55944 363 ft 10 kts 94°
2026-05-01 10:54 48.99609 2.56019 359 ft 11 kts 81°
2026-05-01 10:55 48.99612 2.56056 361 ft 0 kts 86°
2026-05-01 10:55 48.99626 2.56348 367 ft 69 kts 84°
2026-05-01 10:55 48.99683 2.57442 356 ft 133 kts 85°
2026-05-01 10:56 48.99762 2.59059 362 ft 171 kts 86°
2026-05-01 10:56 48.99849 2.60981 591 ft 187 kts 87°
2026-05-01 10:56 48.99946 2.62953 1177 ft 188 kts 87°
2026-05-01 10:56 49.00054 2.64961 1788 ft 193 kts 87°
2026-05-01 10:57 49.00170 2.66995 2452 ft 197 kts 86°
2026-05-01 10:57 49.00294 2.69126 2901 ft 206 kts 86°
2026-05-01 10:57 49.00417 2.71370 3015 ft 220 kts 86°
2026-05-01 10:57 49.00553 2.73732 3400 ft 225 kts 86°
2026-05-01 10:58 49.00676 2.76070 4028 ft 215 kts 88°
2026-05-01 10:58 49.00765 2.78280 4763 ft 202 kts 95°
2026-05-01 10:58 49.00547 2.80310 5464 ft 190 kts 103°
2026-05-01 10:58 49.00302 2.82375 5777 ft 211 kts 102°
2026-05-01 10:59 49.00053 2.84696 6228 ft 232 kts 102°
2026-05-01 10:59 48.99780 2.87247 6679 ft 255 kts 102°
2026-05-01 10:59 48.99481 2.90014 7187 ft 272 kts 102°
2026-05-01 10:59 48.99169 2.92856 8013 ft 276 kts 101°
2026-05-01 11:00 48.98850 2.95758 8889 ft 279 kts 101°
2026-05-01 11:00 48.98343 2.98597 9741 ft 280 kts 118°
2026-05-01 11:00 48.97120 3.00876 10552 ft 282 kts 142°
2026-05-01 11:00 48.95322 3.02279 10892 ft 303 kts 165°
2026-05-01 11:01 48.93150 3.02476 11120 ft 326 kts 187°
2026-05-01 11:01 48.90994 3.01270 11654 ft 336 kts 210°
2026-05-01 11:01 48.89262 2.98853 12378 ft 344 kts 231°
2026-05-01 11:01 48.88195 2.95556 13086 ft 355 kts 252°
2026-05-01 11:02 48.87885 2.91849 13756 ft 363 kts 265°
2026-05-01 11:02 48.87794 2.87941 14352 ft 367 kts 263°
2026-05-01 11:02 48.87543 2.84125 14996 ft 368 kts 258°
2026-05-01 11:02 48.87098 2.80293 15610 ft 370 kts 255°
2026-05-01 11:03 48.86523 2.76469 16217 ft 372 kts 252°
2026-05-01 11:03 48.85884 2.72646 16832 ft 375 kts 252°
2026-05-01 11:03 48.85219 2.68805 17423 ft 378 kts 251°
2026-05-01 11:03 48.84539 2.64914 17999 ft 381 kts 251°
2026-05-01 11:04 48.83860 2.61014 18595 ft 385 kts 251°
2026-05-01 11:04 48.83173 2.57066 19059 ft 389 kts 251°
2026-05-01 11:04 48.82480 2.53087 19566 ft 392 kts 251°
2026-05-01 11:04 48.81790 2.49122 20051 ft 395 kts 251°
2026-05-01 11:05 48.81085 2.45078 20540 ft 398 kts 251°
2026-05-01 11:05 48.80618 2.40909 20978 ft 407 kts 263°
2026-05-01 11:05 48.80769 2.36568 21456 ft 415 kts 276°
2026-05-01 11:05 48.81517 2.32299 21931 ft 421 kts 285°
2026-05-01 11:06 48.82401 2.28042 22375 ft 424 kts 284°
2026-05-01 11:06 48.83275 2.23747 22829 ft 427 kts 284°
2026-05-01 11:06 48.84136 2.19465 23292 ft 430 kts 284°
2026-05-01 11:07 48.85885 2.10713 24188 ft 435 kts 284°
2026-05-01 11:07 48.86765 2.06297 24563 ft 438 kts 284°
2026-05-01 11:07 48.87648 2.01855 24947 ft 441 kts 284°
2026-05-01 11:07 48.88536 1.97381 25332 ft 443 kts 284°
2026-05-01 11:08 48.89418 1.92925 25729 ft 446 kts 284°
2026-05-01 11:08 48.90312 1.88399 26142 ft 449 kts 284°
2026-05-01 11:08 48.92117 1.79229 26994 ft 456 kts 284°
2026-05-01 11:09 48.93028 1.74584 27462 ft 459 kts 284°
2026-05-01 11:09 48.93942 1.69915 27931 ft 462 kts 284°
2026-05-01 11:09 48.94856 1.65233 28378 ft 465 kts 284°
2026-05-01 11:10 48.96708 1.55707 29285 ft 473 kts 283°
2026-05-01 11:10 48.97642 1.50885 29730 ft 476 kts 283°
2026-05-01 11:10 48.98570 1.46084 30196 ft 480 kts 283°
2026-05-01 11:10 48.99513 1.41189 30610 ft 483 kts 283°
2026-05-01 11:11 49.00462 1.36256 31060 ft 485 kts 283°
2026-05-01 11:11 49.01411 1.31305 31476 ft 488 kts 283°
2026-05-01 11:11 49.02353 1.26351 32014 ft 488 kts 282°
2026-05-01 11:11 49.03059 1.21288 32399 ft 488 kts 275°
2026-05-01 11:12 49.03374 1.16133 32806 ft 488 kts 269°
2026-05-01 11:12 49.03505 1.10947 33202 ft 491 kts 269°
2026-05-01 11:12 49.03663 1.05737 33611 ft 494 kts 270°
2026-05-01 11:12 49.03827 1.00494 34028 ft 496 kts 270°
2026-05-01 11:13 49.03989 0.95215 34236 ft 503 kts 270°
2026-05-01 11:13 49.04149 0.89832 34220 ft 510 kts 270°
2026-05-01 11:13 49.04458 0.79192 34217 ft 503 kts 270°
2026-05-01 11:14 49.04754 0.68517 34213 ft 504 kts 270°
2026-05-01 11:14 49.05040 0.57822 34213 ft 504 kts 270°
2026-05-01 11:15 49.05316 0.47119 34211 ft 504 kts 270°
2026-05-01 11:15 49.05580 0.36442 34232 ft 503 kts 271°
2026-05-01 11:16 49.05835 0.25832 34225 ft 504 kts 271°
2026-05-01 11:16 49.06082 0.15165 34222 ft 503 kts 271°
2026-05-01 11:17 49.06317 0.04557 34215 ft 502 kts 271°
2026-05-01 11:17 49.06542 -0.06085 34237 ft 501 kts 271°
2026-05-01 11:18 49.06757 -0.16692 34224 ft 499 kts 271°
2026-05-01 11:18 49.06964 -0.27285 34224 ft 498 kts 271°
2026-05-01 11:19 49.07159 -0.37851 34203 ft 497 kts 271°
2026-05-01 11:19 49.07345 -0.48329 34218 ft 497 kts 270°
2026-05-01 11:20 49.07522 -0.58887 34200 ft 497 kts 271°
2026-05-01 11:20 49.07690 -0.69427 34203 ft 496 kts 270°
2026-05-01 11:21 49.07846 -0.79877 34198 ft 496 kts 270°
2026-05-01 11:21 49.07995 -0.90394 34215 ft 495 kts 270°
2026-05-01 11:22 49.08133 -1.00866 34223 ft 493 kts 270°
2026-05-01 11:22 49.08262 -1.11323 34215 ft 492 kts 270°
2026-05-01 11:23 49.08964 -1.21687 34208 ft 492 kts 281°
2026-05-01 11:23 49.10614 -1.31822 34211 ft 492 kts 283°
2026-05-01 11:24 49.12234 -1.41887 34241 ft 490 kts 283°
2026-05-01 11:25 49.14653 -1.57031 34230 ft 488 kts 282°
2026-05-01 11:25 49.17044 -1.72136 34219 ft 487 kts 283°
2026-05-01 11:26 49.19408 -1.87191 34218 ft 486 kts 282°
2026-05-01 11:27 49.20975 -1.97250 34208 ft 486 kts 282°
2026-05-01 11:27 49.22327 -2.07368 34214 ft 484 kts 275°
2026-05-01 11:28 49.23044 -2.17617 34220 ft 484 kts 275°
2026-05-01 11:28 49.23786 -2.27800 34225 ft 484 kts 274°
2026-05-01 11:29 49.24876 -2.43186 34216 ft 484 kts 274°
2026-05-01 11:30 49.25935 -2.58499 34203 ft 484 kts 274°
2026-05-01 11:30 49.26634 -2.68763 34212 ft 484 kts 273°
2026-05-01 11:31 49.27324 -2.79025 34212 ft 484 kts 273°
2026-05-01 11:31 49.28005 -2.89309 34225 ft 485 kts 273°
2026-05-01 11:32 49.28676 -2.99590 34231 ft 485 kts 273°
2026-05-01 11:32 49.29336 -3.09828 34237 ft 486 kts 273°
2026-05-01 11:33 49.29993 -3.20150 34227 ft 487 kts 272°
2026-05-01 11:33 49.30641 -3.30505 34233 ft 488 kts 272°
2026-05-01 11:34 49.31281 -3.40876 34247 ft 489 kts 272°
2026-05-01 11:34 49.31914 -3.51270 34243 ft 489 kts 272°
2026-05-01 11:35 49.32532 -3.61595 34236 ft 490 kts 271°
2026-05-01 11:35 49.33136 -3.72019 34237 ft 490 kts 271°
2026-05-01 11:36 49.33731 -3.82426 34237 ft 490 kts 271°
2026-05-01 11:36 49.34319 -3.92849 34236 ft 490 kts 271°
2026-05-01 11:37 49.34898 -4.03258 34241 ft 490 kts 270°
2026-05-01 11:37 49.35463 -4.13615 34227 ft 490 kts 270°
2026-05-01 11:38 49.36024 -4.24067 34225 ft 490 kts 270°
2026-05-01 11:38 49.36574 -4.34500 34230 ft 490 kts 270°
2026-05-01 11:39 49.37115 -4.44939 34226 ft 490 kts 270°
2026-05-01 11:39 49.37646 -4.55335 34236 ft 490 kts 269°
2026-05-01 11:40 49.38168 -4.65776 34241 ft 490 kts 269°
2026-05-01 11:40 49.38680 -4.76199 34233 ft 489 kts 269°
2026-05-01 11:41 49.39180 -4.86562 34240 ft 489 kts 269°
2026-05-01 11:41 49.39669 -4.96997 34221 ft 488 kts 268°
2026-05-01 11:42 49.39703 -5.07362 34222 ft 485 kts 265°
2026-05-01 11:42 49.39704 -5.17683 34208 ft 485 kts 265°
2026-05-01 11:43 49.39693 -5.28041 34208 ft 485 kts 265°
2026-05-01 11:43 49.39667 -5.38406 34227 ft 485 kts 264°
2026-05-01 11:44 49.39606 -5.53972 34205 ft 486 kts 264°
2026-05-01 11:44 49.39564 -5.62594 34202 ft 486 kts 264°
2026-05-01 11:45 49.39493 -5.74674 34196 ft 486 kts 264°
2026-05-01 11:45 49.39436 -5.83315 34210 ft 486 kts 264°
2026-05-01 11:46 49.39358 -5.93700 34215 ft 486 kts 264°
2026-05-01 11:46 49.39271 -6.04067 34214 ft 486 kts 263°
2026-05-01 11:47 49.39175 -6.14383 34208 ft 486 kts 263°
2026-05-01 11:47 49.39069 -6.24756 34207 ft 485 kts 263°
2026-05-01 11:48 49.38954 -6.35138 34221 ft 485 kts 263°
2026-05-01 11:48 49.38830 -6.45507 34217 ft 485 kts 263°
2026-05-01 11:49 49.38697 -6.55801 34212 ft 485 kts 263°
2026-05-01 11:49 49.38555 -6.66150 34207 ft 484 kts 263°
2026-05-01 11:50 49.38403 -6.76487 34215 ft 485 kts 263°
2026-05-01 11:50 49.38242 -6.86831 34214 ft 484 kts 263°
2026-05-01 11:51 49.38072 -6.97157 34213 ft 484 kts 263°
2026-05-01 11:51 49.37898 -7.07475 34198 ft 484 kts 264°
2026-05-01 11:52 49.38596 -7.17780 34218 ft 494 kts 277°
2026-05-01 11:52 49.40086 -7.28079 34208 ft 494 kts 277°
2026-05-01 11:53 49.41540 -7.38391 34201 ft 493 kts 276°
2026-05-01 11:53 49.42980 -7.48702 34196 ft 492 kts 276°
2026-05-01 11:54 49.44410 -7.59005 34184 ft 492 kts 276°
2026-05-01 11:54 49.45819 -7.69224 34203 ft 491 kts 276°
2026-05-01 11:55 49.47225 -7.79488 34194 ft 490 kts 276°
2026-05-01 11:55 49.48621 -7.89750 34173 ft 490 kts 276°
2026-05-01 11:56 49.49353 -8.00061 34170 ft 480 kts 264°
2026-05-01 11:56 49.48521 -8.10107 34170 ft 470 kts 252°
2026-05-01 11:57 49.47054 -8.19914 34160 ft 471 kts 252°
2026-05-01 11:57 49.45611 -8.29743 34156 ft 470 kts 252°
2026-05-01 11:58 49.44163 -8.39480 34141 ft 470 kts 252°
2026-05-01 11:59 49.41958 -8.54144 34162 ft 470 kts 253°
2026-05-01 11:59 49.40474 -8.63933 34152 ft 470 kts 253°
2026-05-01 12:00 49.38246 -8.78522 34152 ft 469 kts 252°
2026-05-01 12:01 49.35991 -8.93153 34151 ft 469 kts 252°
2026-05-01 12:01 49.34475 -9.02906 34138 ft 470 kts 253°
2026-05-01 12:02 49.32949 -9.12673 34139 ft 470 kts 253°
2026-05-01 12:02 49.31414 -9.22446 34141 ft 471 kts 252°
2026-05-01 12:03 49.29879 -9.32151 34140 ft 471 kts 252°
2026-05-01 12:03 49.28328 -9.41902 34142 ft 471 kts 252°
2026-05-01 12:04 49.26766 -9.51662 34134 ft 471 kts 252°
2026-05-01 12:04 49.25206 -9.61355 34137 ft 472 kts 252°
2026-05-01 12:05 49.23627 -9.71108 34141 ft 472 kts 252°
2026-05-01 12:05 49.21241 -9.85736 34144 ft 472 kts 252°
2026-05-01 12:06 49.19642 -9.95474 34142 ft 472 kts 252°
2026-05-01 12:06 49.18035 -10.05201 34134 ft 472 kts 252°
2026-05-01 12:07 49.16429 -10.14872 34133 ft 472 kts 252°
2026-05-01 12:07 49.14806 -10.24580 34147 ft 472 kts 252°
2026-05-01 12:08 49.13172 -10.34302 34133 ft 471 kts 252°
2026-05-01 12:08 49.11545 -10.43937 34133 ft 471 kts 252°
2026-05-01 12:09 49.09900 -10.53612 34129 ft 470 kts 252°
2026-05-01 12:09 49.08250 -10.63272 34125 ft 470 kts 252°
2026-05-01 12:10 49.05769 -10.77693 34127 ft 469 kts 252°
2026-05-01 12:11 49.03265 -10.92126 34120 ft 469 kts 252°
2026-05-01 12:11 49.01585 -11.01739 34111 ft 468 kts 252°
2026-05-01 12:12 48.99912 -11.11269 34125 ft 468 kts 251°
2026-05-01 12:12 48.98224 -11.20830 34116 ft 467 kts 251°
2026-05-01 12:13 48.96527 -11.30386 34103 ft 467 kts 252°
2026-05-01 12:13 48.94826 -11.39916 34098 ft 467 kts 252°
2026-05-01 12:14 48.93128 -11.49384 34117 ft 466 kts 251°
2026-05-01 12:14 48.91411 -11.58909 34112 ft 466 kts 251°
2026-05-01 12:15 48.89687 -11.68416 34108 ft 465 kts 251°
2026-05-01 12:15 48.87970 -11.77839 34107 ft 465 kts 251°
2026-05-01 12:16 48.86238 -11.87298 34110 ft 465 kts 251°
2026-05-01 12:16 48.84501 -11.96753 34108 ft 464 kts 250°
2026-05-01 12:17 48.82337 -12.05936 34101 ft 460 kts 245°
2026-05-01 12:17 48.79941 -12.14958 34097 ft 460 kts 245°
2026-05-01 12:18 48.77569 -12.23981 34094 ft 460 kts 245°
2026-05-01 12:18 48.75198 -12.32927 34089 ft 460 kts 245°
2026-05-01 12:19 48.72803 -12.41918 34089 ft 460 kts 245°
2026-05-01 12:19 48.70396 -12.50915 34087 ft 460 kts 245°
2026-05-01 12:20 48.67980 -12.59911 34085 ft 460 kts 245°
2026-05-01 12:20 48.65561 -12.68883 34088 ft 460 kts 245°
2026-05-01 12:21 48.63133 -12.77851 34091 ft 461 kts 245°
2026-05-01 12:21 48.60711 -12.86767 34093 ft 461 kts 245°
2026-05-01 12:22 48.58264 -12.95742 34091 ft 461 kts 245°
2026-05-01 12:22 48.55813 -13.04696 34083 ft 461 kts 245°
2026-05-01 12:23 48.53355 -13.13639 34086 ft 462 kts 245°
2026-05-01 12:23 48.50885 -13.22593 34088 ft 462 kts 245°
2026-05-01 12:24 48.48405 -13.31550 34090 ft 462 kts 245°
2026-05-01 12:24 48.45922 -13.40485 34092 ft 462 kts 245°
2026-05-01 12:25 48.42177 -13.53896 34098 ft 463 kts 245°
2026-05-01 12:26 48.39691 -13.62759 34101 ft 463 kts 245°
2026-05-01 12:26 48.35911 -13.76169 34101 ft 463 kts 245°
2026-05-01 12:27 48.32135 -13.89488 34101 ft 464 kts 245°
2026-05-01 12:28 48.28322 -14.02869 34097 ft 464 kts 245°
2026-05-01 12:29 48.24509 -14.16174 34107 ft 464 kts 245°
2026-05-01 12:29 48.20662 -14.29518 34098 ft 465 kts 245°
2026-05-01 12:30 48.16786 -14.42897 34087 ft 466 kts 245°
2026-05-01 12:31 48.14217 -14.51723 34109 ft 465 kts 245°
2026-05-01 12:31 48.11612 -14.60638 34109 ft 465 kts 245°
2026-05-01 12:32 48.09024 -14.69461 34105 ft 466 kts 245°
2026-05-01 12:32 48.05096 -14.82796 34103 ft 467 kts 245°
2026-05-01 12:33 48.02474 -14.91664 34104 ft 467 kts 245°
2026-05-01 12:33 48.00573 -15.00945 34108 ft 469 kts 258°
2026-05-01 12:34 48.00196 -15.10638 34093 ft 473 kts 270°
2026-05-01 12:34 48.00422 -15.20468 34100 ft 474 kts 270°
2026-05-01 12:35 48.00586 -15.28642 34108 ft 474 kts 270°
2026-05-01 12:35 48.00773 -15.38491 34112 ft 474 kts 270°
2026-05-01 12:36 48.00950 -15.48344 34122 ft 475 kts 270°
2026-05-01 12:36 48.01118 -15.58224 34104 ft 476 kts 270°
2026-05-01 12:37 48.01278 -15.68136 34106 ft 478 kts 271°
2026-05-01 12:37 48.01431 -15.78028 34106 ft 479 kts 271°
2026-05-01 12:38 48.01576 -15.87986 34124 ft 480 kts 271°
2026-05-01 12:38 48.01710 -15.97961 34098 ft 481 kts 271°
2026-05-01 12:39 48.01838 -16.07941 34124 ft 481 kts 271°
2026-05-01 12:39 48.01958 -16.17952 34121 ft 482 kts 271°
2026-05-01 12:40 48.02068 -16.27889 34147 ft 481 kts 271°
2026-05-01 12:40 48.02168 -16.37912 34114 ft 483 kts 272°
2026-05-01 12:41 48.02261 -16.47982 34108 ft 484 kts 272°
2026-05-01 12:41 48.02348 -16.58066 34121 ft 486 kts 272°
2026-05-01 12:42 48.02424 -16.68109 34139 ft 487 kts 272°
2026-05-01 12:42 48.02491 -16.78246 34144 ft 487 kts 272°
2026-05-01 12:43 48.02549 -16.88386 34141 ft 488 kts 272°
2026-05-01 12:43 48.02599 -16.98560 34153 ft 489 kts 272°
2026-05-01 12:44 48.02640 -17.08681 34154 ft 490 kts 273°
2026-05-01 12:45 48.02694 -17.29075 34175 ft 490 kts 274°
2026-05-01 12:45 48.02708 -17.39204 34179 ft 490 kts 274°
2026-05-01 12:46 48.02713 -17.49382 34176 ft 489 kts 273°
2026-05-01 12:46 48.02710 -17.59553 34173 ft 489 kts 273°
2026-05-01 12:47 48.02697 -17.69708 34174 ft 489 kts 273°
2026-05-01 12:47 48.02675 -17.79867 34176 ft 489 kts 273°
2026-05-01 12:48 48.02644 -17.90030 34176 ft 489 kts 273°
2026-05-01 12:48 48.02604 -18.00177 34178 ft 488 kts 273°
2026-05-01 12:49 48.02556 -18.10334 34179 ft 488 kts 273°
2026-05-01 12:49 48.02498 -18.20420 34189 ft 488 kts 273°
2026-05-01 12:50 48.02432 -18.30558 34185 ft 487 kts 273°
2026-05-01 12:50 48.02357 -18.40689 34187 ft 487 kts 273°
2026-05-01 12:51 48.02272 -18.50830 34179 ft 488 kts 273°
2026-05-01 12:52 48.02129 -18.66027 34183 ft 488 kts 273°
2026-05-01 12:52 48.01967 -18.81189 34202 ft 489 kts 273°
2026-05-01 12:53 48.01783 -18.96453 34204 ft 490 kts 273°
2026-05-01 12:54 48.01650 -19.06568 34208 ft 490 kts 273°
2026-05-01 12:54 48.01432 -19.21851 34222 ft 491 kts 273°
2026-05-01 12:55 48.01193 -19.37197 34227 ft 492 kts 273°
2026-05-01 12:56 48.01023 -19.47333 34209 ft 492 kts 273°
2026-05-01 12:56 48.00843 -19.57577 34221 ft 492 kts 273°
2026-05-01 12:57 48.00654 -19.67814 34227 ft 493 kts 273°
2026-05-01 12:57 48.00354 -19.83194 34240 ft 494 kts 272°
2026-05-01 12:58 48.00150 -19.93392 34209 ft 495 kts 272°
2026-05-01 12:59 47.99457 -20.08824 34232 ft 498 kts 269°
2026-05-01 12:59 47.98595 -20.24314 34253 ft 499 kts 269°
2026-05-01 13:00 47.97717 -20.39820 34252 ft 500 kts 269°
2026-05-01 13:01 47.96813 -20.55303 34259 ft 501 kts 269°
2026-05-01 13:02 47.95878 -20.70805 34263 ft 501 kts 269°
2026-05-01 13:07 47.88289 -21.85118 34291 ft 508 kts 268°
2026-05-01 13:08 47.87533 -21.95615 34295 ft 509 kts 268°
2026-05-01 13:08 47.86775 -22.06026 34300 ft 509 kts 268°
2026-05-01 13:09 47.86000 -22.16528 34304 ft 509 kts 267°
2026-05-01 13:09 47.85216 -22.27021 34303 ft 509 kts 267°
2026-05-01 13:10 47.84422 -22.37511 34312 ft 509 kts 267°
2026-05-01 13:10 47.83626 -22.47912 34312 ft 509 kts 267°
2026-05-01 13:11 47.82815 -22.58376 34311 ft 509 kts 266°
2026-05-01 13:11 47.81994 -22.68837 34313 ft 509 kts 266°
2026-05-01 13:12 47.81164 -22.79291 34312 ft 509 kts 266°
2026-05-01 13:12 47.80323 -22.89758 34317 ft 509 kts 266°
2026-05-01 13:13 47.79475 -23.00205 34318 ft 508 kts 266°
2026-05-01 13:13 47.78616 -23.10656 34319 ft 508 kts 266°
2026-05-01 13:14 47.77748 -23.21093 34321 ft 508 kts 266°
2026-05-01 13:14 47.76877 -23.31456 34321 ft 508 kts 266°
2026-05-01 13:15 47.75992 -23.41879 34301 ft 509 kts 265°
2026-05-01 13:15 47.75096 -23.52310 34310 ft 509 kts 265°
2026-05-01 13:16 47.74187 -23.62766 34317 ft 509 kts 265°
2026-05-01 13:16 47.73271 -23.73202 34322 ft 510 kts 265°
2026-05-01 13:17 47.71406 -23.94115 34325 ft 511 kts 265°
2026-05-01 13:18 47.69977 -24.09846 34338 ft 512 kts 265°
2026-05-01 13:18 47.69017 -24.20274 34341 ft 513 kts 265°
2026-05-01 13:19 47.68038 -24.30794 34340 ft 513 kts 265°
2026-05-01 13:20 47.66561 -24.46493 34348 ft 514 kts 265°
2026-05-01 13:20 47.65557 -24.57019 34352 ft 514 kts 265°
2026-05-01 13:21 47.64044 -24.72692 34348 ft 514 kts 265°
2026-05-01 13:21 47.63018 -24.83194 34349 ft 514 kts 265°
2026-05-01 13:22 47.61982 -24.93691 34352 ft 514 kts 264°
2026-05-01 13:22 47.61114 -25.02416 34354 ft 514 kts 264°
2026-05-01 13:23 47.60060 -25.12915 34344 ft 515 kts 264°
2026-05-01 13:23 47.58822 -25.25117 34342 ft 516 kts 265°
2026-05-01 13:24 47.57924 -25.33888 34357 ft 517 kts 265°
2026-05-01 13:25 47.56289 -25.49690 34348 ft 518 kts 265°
2026-05-01 13:25 47.55185 -25.60229 34364 ft 518 kts 264°
2026-05-01 13:26 47.54071 -25.70772 34366 ft 518 kts 264°
2026-05-01 13:26 47.52955 -25.81242 34366 ft 518 kts 264°
2026-05-01 13:27 47.51821 -25.91775 34354 ft 518 kts 264°
2026-05-01 13:27 47.50103 -26.07565 34365 ft 518 kts 264°
2026-05-01 13:28 47.48362 -26.23361 34366 ft 518 kts 264°
2026-05-01 13:29 47.46018 -26.44313 34371 ft 518 kts 264°
2026-05-01 13:31 47.42411 -26.75856 34362 ft 519 kts 264°
2026-05-01 13:32 47.39345 -27.02067 34363 ft 519 kts 264°
2026-05-01 13:33 47.36209 -27.28334 34371 ft 521 kts 264°
2026-05-01 13:34 47.33655 -27.49341 34381 ft 522 kts 264°
2026-05-01 13:35 47.31707 -27.65141 34380 ft 522 kts 264°
2026-05-01 13:36 47.29737 -27.80932 34385 ft 522 kts 264°
2026-05-01 13:36 47.27752 -27.96656 34388 ft 522 kts 263°
2026-05-01 13:37 47.26413 -28.07162 34391 ft 522 kts 263°
2026-05-01 13:37 47.25063 -28.17675 34391 ft 522 kts 263°
2026-05-01 13:38 47.23021 -28.33425 34394 ft 522 kts 263°
2026-05-01 13:39 47.21656 -28.43855 34398 ft 522 kts 263°
2026-05-01 13:39 47.20272 -28.54353 34398 ft 522 kts 263°
2026-05-01 13:40 47.18882 -28.64818 34401 ft 521 kts 263°
2026-05-01 13:40 47.17483 -28.75266 34401 ft 521 kts 263°
2026-05-01 13:41 47.16084 -28.85653 34400 ft 520 kts 262°
2026-05-01 13:41 47.14670 -28.96069 34398 ft 519 kts 262°
2026-05-01 13:42 47.13247 -29.06469 34389 ft 519 kts 262°
2026-05-01 13:42 47.11814 -29.16874 34391 ft 519 kts 262°
2026-05-01 13:43 47.10383 -29.27197 34394 ft 519 kts 262°
2026-05-01 13:43 47.08933 -29.37578 34393 ft 518 kts 262°
2026-05-01 13:44 47.07475 -29.47941 34395 ft 518 kts 262°
2026-05-01 13:44 47.06007 -29.58312 34392 ft 518 kts 262°
2026-05-01 13:45 47.04545 -29.68611 34396 ft 517 kts 261°
2026-05-01 13:45 47.03070 -29.78948 34390 ft 517 kts 261°
2026-05-01 13:46 47.01586 -29.89280 34390 ft 517 kts 261°
2026-05-01 13:46 47.00103 -29.99533 34394 ft 517 kts 261°
2026-05-01 13:47 46.99176 -30.09923 34391 ft 512 kts 269°
2026-05-01 13:47 46.98760 -30.20333 34396 ft 512 kts 269°
2026-05-01 13:48 46.98236 -30.30744 34387 ft 512 kts 268°
2026-05-01 13:48 46.97649 -30.41103 34392 ft 512 kts 268°
2026-05-01 13:49 46.97041 -30.51503 34389 ft 512 kts 268°
2026-05-01 13:49 46.96423 -30.61907 34398 ft 512 kts 268°
2026-05-01 13:50 46.95791 -30.72296 34387 ft 512 kts 268°
2026-05-01 13:50 46.95151 -30.82638 34388 ft 512 kts 268°
2026-05-01 13:51 46.94499 -30.93022 34383 ft 512 kts 267°
2026-05-01 13:51 46.93838 -31.03411 34388 ft 512 kts 267°
2026-05-01 13:52 46.93166 -31.13794 34383 ft 512 kts 266°
2026-05-01 13:52 46.92486 -31.24166 34403 ft 512 kts 266°
2026-05-01 13:53 46.91797 -31.34537 34400 ft 512 kts 266°
2026-05-01 13:53 46.90750 -31.50025 34393 ft 511 kts 266°
2026-05-01 13:54 46.90037 -31.60382 34397 ft 511 kts 266°
2026-05-01 13:54 46.89316 -31.70722 34392 ft 511 kts 266°
2026-05-01 13:55 46.88591 -31.81000 34378 ft 511 kts 265°
2026-05-01 13:55 46.87851 -31.91349 34392 ft 510 kts 265°
2026-05-01 13:56 46.87102 -32.01680 34392 ft 510 kts 265°
2026-05-01 13:56 46.86350 -32.11934 34392 ft 510 kts 265°
2026-05-01 13:57 46.85710 -32.20563 34399 ft 510 kts 265°
2026-05-01 13:57 46.84810 -32.32557 34399 ft 509 kts 264°
2026-05-01 13:58 46.84027 -32.42830 34399 ft 509 kts 264°
2026-05-01 13:58 46.83236 -32.53093 34395 ft 508 kts 264°
2026-05-01 13:59 46.82436 -32.63349 34392 ft 508 kts 264°
2026-05-01 13:59 46.81635 -32.73531 34393 ft 508 kts 263°
2026-05-01 14:00 46.80817 -32.83776 34397 ft 508 kts 263°
2026-05-01 14:00 46.79989 -32.94035 34394 ft 508 kts 263°
2026-05-01 14:01 46.79154 -33.04264 34390 ft 508 kts 263°
2026-05-01 14:01 46.78310 -33.14495 34392 ft 508 kts 263°
2026-05-01 14:02 46.77463 -33.24661 34399 ft 507 kts 262°
2026-05-01 14:02 46.76600 -33.34870 34397 ft 507 kts 262°
2026-05-01 14:03 46.75727 -33.45104 34388 ft 507 kts 262°
2026-05-01 14:03 46.74853 -33.55249 34387 ft 507 kts 262°
2026-05-01 14:04 46.73966 -33.65445 34391 ft 506 kts 261°
2026-05-01 14:04 46.73219 -33.73924 34387 ft 506 kts 261°
2026-05-01 14:05 46.72167 -33.85766 34389 ft 506 kts 261°
2026-05-01 14:05 46.71252 -33.95947 34389 ft 506 kts 261°
2026-05-01 14:06 46.70330 -34.06119 34398 ft 506 kts 260°
2026-05-01 14:06 46.69399 -34.16273 34393 ft 506 kts 260°
2026-05-01 14:07 46.68458 -34.26430 34392 ft 505 kts 260°
2026-05-01 14:08 46.67033 -34.41627 34391 ft 505 kts 260°
2026-05-01 14:08 46.66072 -34.51753 34391 ft 504 kts 260°
2026-05-01 14:09 46.65109 -34.61803 34389 ft 504 kts 259°
2026-05-01 14:09 46.64130 -34.71924 34388 ft 504 kts 259°
2026-05-01 14:10 46.63144 -34.82025 34387 ft 504 kts 259°
2026-05-01 14:10 46.62148 -34.92129 34386 ft 504 kts 259°
2026-05-01 14:11 46.61144 -35.02224 34386 ft 504 kts 259°
2026-05-01 14:11 46.59627 -35.17306 34390 ft 503 kts 259°
2026-05-01 14:12 46.58602 -35.27379 34388 ft 503 kts 259°
2026-05-01 14:12 46.57574 -35.37374 34402 ft 503 kts 260°
2026-05-01 14:13 46.56704 -35.45793 34398 ft 502 kts 259°
2026-05-01 14:13 46.55664 -35.55765 34393 ft 501 kts 259°
2026-05-01 14:14 46.54608 -35.65791 34391 ft 501 kts 259°
2026-05-01 14:14 46.53547 -35.75789 34396 ft 501 kts 259°
2026-05-01 14:15 46.52475 -35.85798 34399 ft 500 kts 259°
2026-05-01 14:15 46.51405 -35.95710 34383 ft 500 kts 259°
2026-05-01 14:16 46.50320 -36.05675 34368 ft 500 kts 259°
2026-05-01 14:16 46.49225 -36.15638 34378 ft 499 kts 259°
2026-05-01 14:17 46.48124 -36.25589 34384 ft 499 kts 258°
2026-05-01 14:17 46.47015 -36.35519 34375 ft 499 kts 258°
2026-05-01 14:18 46.45895 -36.45472 34379 ft 498 kts 258°
2026-05-01 14:18 46.44960 -36.53721 34371 ft 498 kts 258°
2026-05-01 14:19 46.43640 -36.65270 34362 ft 499 kts 258°
2026-05-01 14:19 46.42495 -36.75198 34366 ft 499 kts 258°
2026-05-01 14:20 46.40761 -36.90097 34364 ft 499 kts 258°
2026-05-01 14:21 46.39601 -36.99962 34368 ft 499 kts 258°
2026-05-01 14:21 46.38424 -37.09900 34364 ft 500 kts 257°
2026-05-01 14:22 46.36646 -37.24756 34361 ft 501 kts 257°
2026-05-01 14:22 46.35445 -37.34701 34363 ft 501 kts 257°
2026-05-01 14:23 46.34234 -37.44654 34376 ft 502 kts 257°
2026-05-01 14:23 46.33016 -37.54588 34351 ft 503 kts 256°
2026-05-01 14:24 46.31776 -37.64628 34354 ft 504 kts 256°
2026-05-01 14:24 46.30541 -37.74546 34358 ft 504 kts 256°
2026-05-01 14:25 46.29289 -37.84536 34364 ft 504 kts 256°
2026-05-01 14:25 46.28027 -37.94534 34372 ft 505 kts 256°
2026-05-01 14:26 46.26123 -38.09461 34338 ft 506 kts 256°
2026-05-01 14:27 46.24836 -38.19468 34353 ft 506 kts 256°
2026-05-01 14:27 46.23537 -38.29492 34373 ft 506 kts 256°
2026-05-01 14:28 46.21583 -38.44443 34351 ft 507 kts 255°
2026-05-01 14:28 46.20261 -38.54460 34352 ft 507 kts 255°
2026-05-01 14:29 46.18934 -38.64454 34354 ft 507 kts 255°
2026-05-01 14:30 46.16261 -38.84363 34366 ft 506 kts 255°
2026-05-01 14:31 46.14228 -38.99327 34361 ft 506 kts 255°
2026-05-01 14:31 46.12860 -39.09308 34342 ft 507 kts 255°
2026-05-01 14:32 46.11485 -39.19276 34343 ft 507 kts 255°
2026-05-01 14:32 46.10108 -39.29184 34347 ft 507 kts 255°
2026-05-01 14:33 46.08716 -39.39140 34342 ft 507 kts 255°
2026-05-01 14:33 46.07312 -39.49106 34345 ft 507 kts 255°
2026-05-01 14:34 46.05901 -39.59067 34362 ft 506 kts 255°
2026-05-01 14:34 46.04499 -39.68937 34356 ft 506 kts 255°
2026-05-01 14:35 46.03083 -39.78860 34351 ft 505 kts 255°
2026-05-01 14:35 46.01661 -39.88763 34341 ft 505 kts 255°
2026-05-01 14:36 46.00221 -39.98650 34353 ft 503 kts 254°
2026-05-01 14:36 45.98641 -40.08443 34338 ft 502 kts 254°
2026-05-01 14:37 45.97184 -40.18201 34334 ft 502 kts 255°
2026-05-01 14:37 45.95716 -40.28018 34331 ft 502 kts 254°
2026-05-01 14:38 45.94225 -40.37811 34344 ft 501 kts 254°
2026-05-01 14:38 45.92731 -40.47542 34339 ft 500 kts 254°
2026-05-01 14:39 45.91221 -40.57312 34329 ft 499 kts 254°
2026-05-01 14:39 45.89702 -40.67054 34324 ft 499 kts 254°
2026-05-01 14:40 45.88184 -40.76712 34315 ft 498 kts 254°
2026-05-01 14:40 45.86650 -40.86404 34326 ft 497 kts 254°
2026-05-01 14:41 45.85111 -40.96080 34308 ft 498 kts 254°
2026-05-01 14:41 45.83562 -41.05761 34303 ft 497 kts 254°
2026-05-01 14:42 45.82012 -41.15388 34299 ft 497 kts 254°
2026-05-01 14:42 45.80446 -41.25057 34313 ft 497 kts 254°
2026-05-01 14:43 45.78876 -41.34697 34308 ft 496 kts 254°
2026-05-01 14:43 45.77298 -41.44334 34306 ft 496 kts 254°
2026-05-01 14:44 45.75724 -41.53885 34305 ft 495 kts 254°
2026-05-01 14:44 45.73336 -41.68288 34313 ft 495 kts 253°
2026-05-01 14:45 45.70934 -41.82644 34305 ft 494 kts 253°
2026-05-01 14:46 45.69322 -41.92213 34276 ft 494 kts 253°
2026-05-01 14:46 45.66899 -42.06504 34290 ft 494 kts 253°
2026-05-01 14:47 45.65265 -42.16073 34288 ft 494 kts 253°
2026-05-01 14:48 45.62805 -42.30384 34285 ft 494 kts 253°
2026-05-01 14:48 45.60323 -42.44700 34286 ft 494 kts 253°
2026-05-01 14:49 45.57004 -42.63677 34282 ft 494 kts 253°
2026-05-01 14:50 45.53638 -42.82701 34264 ft 495 kts 253°
2026-05-01 14:51 45.51090 -42.96986 34253 ft 496 kts 252°
2026-05-01 14:52 45.48528 -43.11226 34264 ft 496 kts 253°
2026-05-01 14:53 45.45939 -43.25513 34273 ft 496 kts 253°
2026-05-01 14:53 45.44215 -43.34966 34263 ft 496 kts 252°
2026-05-01 14:54 45.42467 -43.44490 34262 ft 496 kts 252°
2026-05-01 14:54 45.40712 -43.54009 34271 ft 497 kts 252°
2026-05-01 14:55 45.38959 -43.63470 34280 ft 496 kts 253°
2026-05-01 14:55 45.37189 -43.72980 34282 ft 496 kts 252°
2026-05-01 14:56 45.35408 -43.82489 34239 ft 497 kts 252°
2026-05-01 14:56 45.33631 -43.91931 34243 ft 498 kts 252°
2026-05-01 14:57 45.31833 -44.01443 34266 ft 498 kts 252°
2026-05-01 14:57 45.29122 -44.15697 34251 ft 498 kts 252°
2026-05-01 14:58 45.27301 -44.25206 34258 ft 498 kts 252°
2026-05-01 14:58 45.25475 -44.34703 34250 ft 498 kts 252°
2026-05-01 14:59 45.23653 -44.44123 34263 ft 498 kts 252°
2026-05-01 14:59 45.21812 -44.53601 34254 ft 497 kts 252°
2026-05-01 15:00 45.19352 -44.66189 34243 ft 497 kts 252°
2026-05-01 15:01 45.17192 -44.77175 34245 ft 498 kts 253°
2026-05-01 15:01 45.15627 -44.85094 34238 ft 498 kts 253°
2026-05-01 15:02 45.13755 -44.94530 34237 ft 498 kts 253°
2026-05-01 15:02 45.11882 -45.03929 34235 ft 498 kts 252°
2026-05-01 15:03 45.09993 -45.13358 34236 ft 498 kts 252°
2026-05-01 15:03 45.08093 -45.22792 34234 ft 498 kts 253°
2026-05-01 15:04 45.06202 -45.32149 34230 ft 497 kts 252°
2026-05-01 15:04 45.04284 -45.41589 34235 ft 497 kts 253°
2026-05-01 15:05 45.02374 -45.50946 34233 ft 497 kts 252°
2026-05-01 15:05 45.00444 -45.60347 34199 ft 498 kts 253°
2026-05-01 15:06 44.98505 -45.69761 34210 ft 498 kts 253°
2026-05-01 15:06 44.96572 -45.79100 34208 ft 499 kts 253°
2026-05-01 15:07 44.94609 -45.88538 34227 ft 499 kts 253°
2026-05-01 15:07 44.92657 -45.97876 34223 ft 499 kts 253°
2026-05-01 15:08 44.90684 -46.07280 34210 ft 499 kts 253°
2026-05-01 15:08 44.88706 -46.16661 34207 ft 500 kts 253°
2026-05-01 15:09 44.86716 -46.26056 34221 ft 499 kts 253°
2026-05-01 15:09 44.84720 -46.35429 34233 ft 499 kts 253°
2026-05-01 15:10 44.82714 -46.44814 34227 ft 499 kts 253°
2026-05-01 15:10 44.79709 -46.58797 34209 ft 499 kts 253°
2026-05-01 15:11 44.76672 -46.72825 34217 ft 499 kts 254°
2026-05-01 15:12 44.74641 -46.82159 34218 ft 498 kts 254°
2026-05-01 15:12 44.71593 -46.96087 34207 ft 498 kts 254°
2026-05-01 15:14 44.66462 -47.19332 34203 ft 497 kts 253°
2026-05-01 15:14 44.63378 -47.33177 34191 ft 497 kts 253°
2026-05-01 15:15 44.59220 -47.51703 34207 ft 496 kts 254°
2026-05-01 15:16 44.55058 -47.70097 34200 ft 495 kts 254°
2026-05-01 15:18 44.49811 -47.93060 34209 ft 493 kts 254°
2026-05-01 15:19 44.45608 -48.11284 34194 ft 492 kts 254°
2026-05-01 15:19 44.42435 -48.24932 34202 ft 490 kts 255°
2026-05-01 15:20 44.39259 -48.38520 34190 ft 489 kts 255°
2026-05-01 15:21 44.37149 -48.47498 34184 ft 489 kts 254°
2026-05-01 15:21 44.35016 -48.56539 34175 ft 488 kts 255°
2026-05-01 15:22 44.31819 -48.70017 34194 ft 486 kts 255°
2026-05-01 15:22 44.29686 -48.78972 34186 ft 486 kts 255°
2026-05-01 15:23 44.27546 -48.87915 34188 ft 485 kts 255°
2026-05-01 15:23 44.25411 -48.96789 34222 ft 483 kts 255°
2026-05-01 15:24 44.23270 -49.05671 34208 ft 482 kts 255°
2026-05-01 15:24 44.21126 -49.14530 34184 ft 481 kts 255°
2026-05-01 15:25 44.18982 -49.23350 34186 ft 480 kts 255°
2026-05-01 15:25 44.16842 -49.32113 34207 ft 478 kts 255°
2026-05-01 15:26 44.14696 -49.40875 34193 ft 477 kts 255°
2026-05-01 15:26 44.12553 -49.49593 34190 ft 477 kts 255°
2026-05-01 15:27 44.10400 -49.58319 34182 ft 476 kts 255°
2026-05-01 15:28 44.07172 -49.71370 34181 ft 474 kts 255°
2026-05-01 15:28 44.05016 -49.80049 34181 ft 474 kts 255°
2026-05-01 15:29 44.01778 -49.93030 34175 ft 473 kts 254°
2026-05-01 15:29 44.00399 -50.01863 34150 ft 466 kts 269°
2026-05-01 15:30 44.00580 -50.10749 34169 ft 462 kts 277°
2026-05-01 15:31 44.02020 -50.37448 34167 ft 462 kts 276°
2026-05-01 15:32 44.02937 -50.55241 34171 ft 463 kts 276°
2026-05-01 15:34 44.04269 -50.82129 34169 ft 465 kts 275°